Notices

What's New in latest Release from April 7th, 2021:

- Updated Glossary, including Speed of Maximum Gust, and Total Hourly Precipitation

- Updated national and regional climate services offices contacts and prices information

- Addition of station inventory lists for 1981-2010, 1971-2000, and 1961-1990 Normals.

If you haven't already, please take our survey and provide feedback about our website: https://eccc.sondage-survey.ca/f/LanguageSelection.aspx?s=442ca660-fcf1-47c0-95a9-59707d6fd709

Hourly Data Report for July 20, 2019

TORONTO CITY
ONTARIO
Current Station Operator: ECCC - MSC

43°40'00.000" N
79°24'00.000" W
112.50 m
6158355
71508
XTO

Download Data

Hourly Data (July 2019)
Hourly Data Report for July 20, 2019
TIME
LST
Temp Definition
°C
Dew Point Definition
°C
Rel Hum Definition
%
Precip. Amount Definition
mm

Wind Dir Definition
10's deg

Wind Spd Definition
km/h
Visibility Definition
km
Stn Press Definition
kPa
Hmdx Definition


Wind Chill Definition


Weather Definition


00:00 25.6 21.1 76 0.0       99.63 34   LegendNANA
01:00 25.5 21.8 80 0.0       99.61 35   LegendNANA
02:00 25.2 21.8 81 0.0       99.62 34   LegendNANA
03:00 25.2 22.3 84 0.0       99.63 35   LegendNANA
04:00 24.5 21.7 85 0.0       99.62 34   LegendNANA
05:00 25.7 21.8 79 0.0       99.59 35   LegendNANA
06:00 25.4 21.2 78 0.0       99.61 34   LegendNANA
07:00 26.3 22.0 78 0.0       99.54 36   LegendNANA
08:00 26.0 21.7 77 0.0       99.60 35   LegendNANA
09:00 26.3 21.7 76 0.0       99.66 35   LegendNANA
10:00 29.3 21.6 63 0.0       99.62 38   LegendNANA
11:00 31.1 21.6 57 0.0       99.56 40   LegendNANA
12:00 30.9 20.2 53 0.0       99.51 39   LegendNANA
13:00 30.8 21.1 57 0.0       99.48 39   LegendNANA
14:00 31.5 22.0 57 0.0       99.50 41   LegendNANA
15:00 32.1 20.8 52 0.0       99.53 40   LegendNANA
16:00 33.5 18.2 40 0.0       99.52 40   LegendNANA
17:00 33.1 18.9 43 0.0       99.54 40   LegendNANA
18:00 32.3 18.6 44 0.0       99.52 39   LegendNANA
19:00 31.3 18.8 48 0.0       99.51 38   LegendNANA
20:00 30.7 18.9 49 0.0       99.55 37   LegendNANA
21:00 25.5 19.0 68 2.3       99.64 32   LegendNANA
22:00 21.9 19.1 84 1.6       99.48 29   LegendNANA
23:00 21.9 19.1 84 0.4       99.43 29   LegendNANA

Notes on Data Quality.

Legend

  • E = Estimated
  • M = Missing
  • NA = Not Available*
  • [empty] = Indicates an unobserved value
Date modified: